Dewpoint
12 11 13 15 15 16 18 19 20 21 26 31 33 30 24 22 19 17 17 19 22 24 28 31 33 36 38 39 40 42 43 43 44 43 44 46 47 46 46 47 47 46 47
11 10 11 12 13 13 14 15 16 16 20 27 28 28 23 19 17 14 12 14 16 19 21 25 29 32 35 35 36 38 41 42 42 41 43 42 44 44 46 47 45 44 46
12 9 9 10 10 9 10 10 12 13 15 20 24 23 20 17 14 12 9 8 10 14 15 19 24 28 32 32 33 35 37 39 40 40 40 39 41 40 44 44 45 41 42
14 10 9 8 6 6 7 7 9 9 9 13 15 15 15 13 10 8 6 6 5 8 11 12 17 24 27 29 31 33 34 35 36 39 38 39 39 39 39 41 39 39 39
12 8 6 5 3 4 4 4 5 5 5 7 11 12 12 8 7 6 4 3 3 4 5 8 9 14 21 24 27 28 29 30 32 33 34 36 37 34 35 36 37 35 36
10 5 3 4 2 2 2 3 2 2 3 2 2 2 3 3 2 3 3 2 2 2 2 2 4 7 11 14 18 22 24 23 24 27 29 29 30 30 32 32 32 31 33
7 3 0 0 -0 -1 -0 0 1 0 -0 1 1 -0 -0 -0 1 3 1 2 1 -2 -2 -1 -1 1 6 10 12 13 15 18 16 17 20 20 21 20 23 26 26 26 26
4 2 -0 -3 -3 -2 -2 -1 0 -1 -1 -2 -2 -2 -2 -1 -2 -3 -3 -3 -3 -3 -4 -4 -3 -2 0 6 9 10 11 14 16 14 12 12 12 12 14 15 16 14 17
3 1 -2 -4 -4 -3 -2 -2 -1 -0 -1 -1 -2 -2 -2 -3 -4 -5 -5 -5 -5 -7 -6 -6 -5 -4 -3 2 6 8 8 9 11 13 10 9 9 10 11 12 11 11 12
2 -1 -2 -4 -3 -2 -1 -0 -0 0 1 1 0 0 0 1 -0 -1 -2 -3 -3 -4 -5 -5 -4 -4 -3 1 4 6 7 7 8 9 9 8 7 7 8 9 10 11 12
0 -2 -3 -3 -3 -3 -2 -2 -1 -1 -1 2 3 4 3 2 2 3 3 2 1 1 -1 -1 -2 -1 -1 1 4 5 7 7 7 8 8 7 5 5 5 5 8 9 10
-1 -4 -5 -4 -4 -4 -3 -2 -1 1 1 1 2 3 3 3 4 3 3 2 2 2 2 1 0 1 1 1 8 9 9 9 9 8 8 7 4 4 4 5 7 8 9
-3 -4 -5 -5 -3 -1 1 3 4 4 4 5 5 5 5 5 5 5 4 3 3 3 3 3 2 2 2 3 7 11 12 11 10 10 9 7 5 4 5 7 7 9 10
1 2 2 4 6 6 7 7 7 7 6 6 6 6 5 5 5 5 4 4 5 6 5 5 5 5 5 6 9 12 14 14 13 12 11 10 7 5 6 8 8 9 10
5 5 6 7 7 7 7 7 7 7 6 5 5 6 6 6 5 5 5 5 5 5 5 5 5 5 6 10 10 13 14 16 15 15 13 12 11 12 11 11 12 12 11
6 6 6 6 6 6 7 7 7 6 5 5 4 4 4 5 5 5 5 5 6 7 7 6 5 6 7 8 9 11 14 15 15 15 14 14 12 11 12 12 13 13 13
7 7 6 6 7 7 7 7 6 6 5 4 4 4 4 4 4 5 5 5 5 6 6 6 7 7 8 8 10 11 13 13 13 14 14 13 11 11 12 11 11 12 14
7 6 8 9 8 7 7 6 5 4 4 3 3 3 3 3 3 3 3 3 3 3 3 4 4 4 5 6 9 10 11 11 12 12 12 12 12 12 12 13 13 14 16
10 11 11 9 6 5 5 4 3 4 3 2 2 2 2 1 0 0 0 0 0 0 0 -1 -2 -2 -1 1 5 9 9 7 6 7 8 10 11 11 11 13 13 14 15
10 8 7 5 4 3 3 2 2 2 1 1 -0 -3 -4 -3 -3 -3 -3 -4 -3 -4 -5 -6 -6 -5 -2 -2 2 5 5 4 3 2 1 3 6 8 10 11 13 15 16
8 6 3 3 3 3 1 -1 -3 -4 -6 -8 -8 -8 -8 -8 -8 -8 -8 -8 -8 -8 -7 -7 -7 -7 -7 -6 -0 4 5 5 4 3 2 1 3 5 7 9 13 17 12
5 5 1 -2 -2 -2 -3 -5 -7 -8 -7 -6 -5 -5 -5 -5 -6 -5 -5 -5 -5 -5 -4 -4 -4 -4 -5 -4 -2 2 6 8 9 9 7 6 6 7 8 10 11 10 10
-1 -3 -5 -5 -5 -5 -5 -6 -5 -4 -4 -4 -3 -3 -4 -4 -4 -3 -2 -2 -2 -1 -1 -1 -1 -1 -2 -3 0 3 4 6 6 7 7 8 10 11 12 16 12 15 19
-5 -5 -4 -4 -5 -5 -4 -4 -4 -4 -4 -5 -5 -5 -5 -3 -3 -4 -4 -3 -2 -1 -1 -1 -0 0 0 -0 -0 0 0 2 2 2 2 3 5 6 7 7 7 16 15
-2 -3 -4 -4 -4 -4 -6 -6 -6 -6 -6 -6 -5 -4 -4 -3 -2 -2 -1 0 2 2 6 9 10 9 8 9 8 11 14 16 14 13 10 9 8 8 5 6 8 7 8
-4 -4 -5 -6 -6 -6 -6 -6 -6 -5 -4 -3 -3 -1 -1 -1 -1 -1 1 1 2 3 3 4 5 7 7 7 8 11 11 12 12 13 13 12 13 13 12 7 6 10 13
Wind_Speed
6 5 5 6 6 8 10 12 11 12 10 7 5 7 11 11 13 14 18 18 18 17 16 13 14 14 14 14 15 11 9 11 14 6 7 8 5 8 7 10 10 10 11
9 7 6 7 7 9 10 11 12 12 10 9 6 6 7 10 11 12 16 18 19 18 16 16 14 15 13 16 16 15 9 9 14 7 6 2 6 8 8 8 10 13 11
14 10 8 7 7 9 11 12 12 12 11 8 6 8 7 8 10 12 13 17 18 17 17 17 15 14 14 13 14 14 14 8 10 13 7 2 3 10 5 5 11 12 11
14 12 10 9 9 10 11 11 12 11 11 10 10 13 11 7 8 10 11 13 17 16 16 15 15 15 13 15 13 13 12 12 11 4 11 10 7 4 4 2 16 12 14
17 15 11 10 11 10 11 10 12 13 13 13 11 11 12 10 8 9 10 12 13 16 15 14 15 15 13 14 15 15 15 13 11 12 9 7 7 11 4 6 12 11 15
19 16 13 12 12 11 11 11 12 13 13 13 14 14 14 11 10 10 10 10 10 12 15 15 15 15 14 15 14 14 16 14 14 11 11 11 6 8 5 3 9 11 8
20 18 16 14 12 12 12 11 12 13 13 13 13 13 13 13 12 11 10 11 11 12 14 14 15 14 14 13 12 13 14 14 13 13 10 10 10 8 6 5 7 6 8
19 18 16 15 13 12 12 12 12 13 12 12 13 12 12 11 11 12 11 11 11 11 12 12 12 13 13 12 11 11 11 11 11 12 11 8 9 8 8 6 8 8 5
21 18 16 15 14 13 12 12 12 12 11 11 12 12 12 12 11 11 11 10 11 9 11 11 12 12 12 12 9 10 10 9 9 9 9 8 8 7 7 6 7 6 5
21 19 16 15 13 13 12 11 11 11 10 10 10 11 11 11 11 11 11 11 10 10 11 11 11 11 11 11 10 9 10 9 8 8 8 8 8 7 6 5 6 6 7
22 19 17 15 14 12 12 11 11 10 10 10 9 9 9 9 9 9 9 9 9 10 10 10 10 11 11 11 10 9 9 9 8 8 8 8 9 8 7 7 7 8 9
22 20 18 16 15 13 12 11 10 10 8 8 8 8 7 7 8 8 7 7 7 7 8 8 9 9 9 9 9 8 8 8 8 8 8 8 9 9 8 8 9 9 10
23 20 18 16 15 13 11 10 9 8 7 7 6 6 6 5 5 5 5 6 6 6 7 7 7 8 8 8 7 8 8 8 8 7 8 9 9 9 9 10 10 10 10
22 20 17 15 13 11 10 9 8 6 5 5 5 4 4 3 3 3 3 4 4 4 5 5 5 5 6 7 6 8 9 8 8 9 9 10 10 10 11 11 11 11 11
21 19 17 15 13 11 10 8 7 6 4 3 3 2 1 1 2 2 3 3 4 4 4 5 5 6 7 6 6 8 9 10 9 7 9 11 12 15 13 11 11 12 12
20 18 17 15 13 11 9 8 7 5 3 2 0 0 2 2 3 4 4 5 6 6 6 6 7 7 7 9 11 11 10 10 11 10 9 9 15 14 14 14 15 14 14
20 19 17 14 12 11 10 8 7 5 3 2 2 3 3 4 5 5 6 7 7 7 7 8 8 9 9 13 13 13 11 11 12 12 11 12 13 14 11 14 17 17 18
20 18 16 14 12 10 8 8 5 3 2 3 3 4 4 5 6 6 7 8 8 9 9 9 10 11 11 14 15 16 12 13 13 13 12 13 14 14 15 14 15 16 16
19 16 13 12 10 9 7 5 3 2 2 4 4 5 5 6 6 7 8 9 10 11 11 12 12 12 13 17 17 16 14 15 15 15 15 15 16 18 20 17 18 19 17
17 16 13 11 9 7 6 4 2 1 3 4 5 5 5 6 8 9 10 10 10 13 12 14 13 15 16 19 20 19 15 16 16 16 17 20 19 21 22 19 18 20 14
17 14 11 10 8 7 6 3 0 2 3 3 4 5 6 8 9 10 11 12 12 13 13 15 14 15 16 16 21 21 17 16 17 16 15 15 21 22 22 25 18 17 19
15 11 11 10 8 6 4 2 2 1 3 4 6 7 8 8 9 11 12 13 13 14 14 15 14 13 14 17 18 20 21 22 20 20 18 18 26 27 28 25 24 27 26
14 10 10 9 7 5 3 1 1 3 5 6 7 8 8 9 9 10 12 12 12 12 13 13 14 14 14 13 19 21 22 23 20 18 22 28 30 31 29 29 30 26 15
12 10 9 8 8 5 3 2 3 4 5 6 7 8 9 10 10 9 10 10 11 11 13 13 15 15 16 15 15 16 17 21 20 21 21 23 25 27 27 27 24 14 12
11 9 8 7 7 5 4 4 4 4 5 5 6 7 7 8 10 9 10 10 10 13 15 15 15 17 17 16 23 25 20 18 20 24 21 20 19 18 17 16 15 13 14
10 9 8 8 7 6 5 5 6 6 6 7 7 8 8 9 9 10 11 13 16 18 19 21 20 16 22 25 26 27 28 28 29 22 20 18 16 19 20 18 18 18 14
Wind_Direction
139 106 85 70 65 55 52 44 37 22 30 31 30 49 49 45 46 39 35 35 32 27 29 27 26 23 32 28 23 8 24 31 0 354 335 98 100 49 64 71 63 59 67
159 142 122 98 80 67 59 55 46 35 33 40 51 67 75 62 58 47 41 36 36 32 35 30 30 26 28 29 26 24 3 41 25 3 304 140 140 49 88 78 62 38 37
169 157 142 119 95 74 59 54 50 44 36 40 78 100 89 67 50 41 40 35 38 35 33 35 34 34 34 32 28 24 27 12 30 36 9 339 360 337 130 103 77 39 21
171 158 150 123 101 81 72 62 59 52 44 46 67 74 74 79 56 52 48 46 41 38 34 34 38 41 39 36 30 30 34 27 31 36 21 43 31 360 321 39 64 21 26
175 163 146 126 108 95 84 76 72 63 58 59 67 80 83 79 71 61 57 51 48 41 38 36 37 40 36 37 35 36 38 36 41 45 18 21 53 28 350 304 348 358 356
168 156 142 134 117 105 95 88 79 73 67 69 71 75 83 81 76 67 63 56 53 45 36 39 39 38 36 33 31 36 39 38 40 40 53 49 41 22 14 336 339 327 328
165 158 154 143 130 119 109 98 88 79 76 73 71 73 75 75 71 62 55 57 49 41 34 35 36 35 32 33 37 37 38 39 42 37 36 41 40 22 6 350 330 307 315
167 163 153 142 132 124 115 109 100 91 82 78 74 68 69 68 65 61 63 54 54 43 33 33 36 34 31 28 36 39 38 38 41 40 35 39 32 23 19 6 344 323 304
164 158 148 141 134 126 115 110 103 95 86 82 78 70 66 65 63 58 56 53 46 37 31 31 30 29 29 25 26 41 30 35 34 34 29 27 21 14 7 357 346 341 319
161 156 149 142 132 124 116 108 102 97 90 82 77 72 65 59 57 56 51 47 38 32 30 26 26 25 24 20 23 28 24 23 26 24 19 17 7 349 344 339 323 310 294
160 157 150 141 133 126 121 113 107 101 91 84 79 75 67 61 59 57 48 39 38 30 30 24 23 22 20 18 19 20 16 15 11 14 8 1 355 343 331 327 315 305 297
159 155 150 144 139 132 127 118 111 100 90 85 82 76 71 63 59 54 46 40 39 34 30 24 24 20 14 10 12 7 4 2 360 359 354 351 345 336 329 328 312 303 300
156 151 149 146 139 131 124 117 107 102 91 86 86 77 68 62 56 50 40 36 28 24 20 18 15 8 359 352 346 344 342 342 337 341 337 335 331 324 323 319 309 306 308
154 151 145 139 133 129 125 119 108 98 93 83 80 79 64 52 38 21 15 12 360 357 358 350 342 336 330 325 320 326 323 319 321 318 317 316 313 310 312 308 305 309 312
154 153 149 144 139 135 130 125 119 115 95 84 73 71 35 359 328 310 305 307 312 312 308 307 306 304 296 288 294 294 293 300 299 294 296 298 297 295 288 291 293 305 301
157 151 143 141 141 141 141 139 133 128 130 116 127 274 270 269 272 273 274 278 280 276 274 277 282 285 286 286 296 296 287 293 296 289 285 289 291 289 286 284 289 280 281
150 147 142 140 136 138 140 139 138 137 150 188 230 238 248 257 260 262 265 268 266 270 277 276 278 283 280 291 294 293 293 294 286 278 276 281 282 286 290 284 285 284 280
140 135 131 128 126 122 119 122 134 148 179 243 253 248 251 263 266 265 270 277 281 282 286 285 282 284 285 290 291 293 292 281 277 276 273 270 272 268 269 263 265 266 266
131 124 119 122 124 124 125 138 160 160 227 266 271 264 255 270 282 287 290 291 290 289 287 287 288 283 283 287 289 292 288 285 281 275 268 259 257 263 272 264 263 268 268
119 122 121 122 127 135 138 145 169 204 268 261 265 269 276 282 287 289 291 291 286 285 288 289 288 287 288 290 290 288 283 280 281 281 277 274 269 263 265 264 262 267 264
120 124 129 129 129 135 148 149 203 271 292 303 299 293 291 292 294 295 294 295 293 291 289 290 290 288 284 283 287 287 282 278 280 280 279 278 279 276 274 270 265 262 267
121 125 127 128 134 134 136 168 235 333 322 311 311 312 312 309 308 303 300 299 296 293 292 291 291 290 292 292 290 289 284 280 277 277 276 274 278 275 274 276 275 275 275
128 127 118 111 116 134 164 187 40 336 326 321 316 317 317 311 306 301 301 300 301 302 303 303 303 303 304 301 299 297 295 292 288 282 276 275 274 274 277 280 278 275 279
115 114 118 123 124 122 123 61 4 346 332 326 330 329 324 317 324 320 311 309 308 308 307 304 298 292 288 287 287 282 280 278 278 274 275 275 274 273 272 270 268 273 261
120 121 117 111 99 80 66 48 25 9 348 340 332 327 326 325 321 318 313 304 297 290 288 290 291 300 299 288 286 291 288 277 261 264 256 259 263 267 267 261 254 257 260
122 112 100 91 76 66 51 33 20 14 360 350 351 341 333 325 321 316 308 305 308 307 306 305 303 298 300 307 307 306 304 302 299 295 293 291 279 264 259 254 260 261 255